Date,TemperatureHighF,TemperatureAvgF,TemperatureLowF,DewpointHighF,DewpointAvgF,DewpointLowF,HumidityHigh,HumidityAvg,HumidityLow,PressureMaxIn,PressureMinIn,WindSpeedMaxMPH,WindSpeedAvgMPH,GustSpeedMaxMPH,PrecipitationSumIn
2013-1-1,6.5,0.0,-8.2,-6.8,-10.0,-14.6,76,62,45,30.48,30.08,9,3,27,0.00
2013-1-2,8.1,1.6,-3.7,-5.5,-10.3,-16.4,69,57,44,30.48,30.38,8,3,27,0.00
2013-1-3,23.6,-0.2,-19.3,-8.2,-18.1,-27.5,72,49,14,30.76,30.48,2,1,13,0.00
2013-1-4,33.4,14.8,-2.2,4.8,-4.4,-18.6,73,47,16,30.70,30.20,4,1,16,0.02
2013-1-5,27.3,20.4,5.8,-2.9,-11.0,-21.9,36,24,15,30.27,30.12,9,5,32,0.00
2013-1-6,39.2,16.0,-2.0,0.5,-10.9,-18.9,53,34,10,30.41,30.14,3,1,15,0.01
2013-1-7,34.0,18.5,1.5,-3.4,-9.8,-16.7,59,32,13,30.13,29.93,8,1,24,0.01
2013-1-8,28.5,20.5,4.3,10.2,2.4,-14.4,74,47,19,30.25,29.85,8,4,25,0.00
2013-1-9,38.5,19.4,5.4,6.7,1.5,-5.3,65,48,19,30.44,30.17,2,1,15,0.00
2013-1-10,35.5,18.4,1.7,5.9,-3.7,-10.5,70,42,14,30.15,29.53,3,1,20,0.00
2013-1-11,16.1,4.7,-6.8,9.4,-3.2,-16.7,84,69,56,29.85,29.15,9,2,24,0.00
2013-1-12,-0.2,-9.7,-21.1,-14.8,-21.1,-29.5,69,57,39,30.28,29.85,6,2,17,0.00
2013-1-17,35.8,16.5,0.3,8.1,-0.7,-8.3,80,51,21,30.61,30.33,4,1,16,0.01
2013-1-18,29.4,21.9,14.0,-1.1,-5.9,-8.6,41,29,21,30.44,30.14,12,7,34,0.00
2013-1-19,36.3,24.5,14.8,-2.9,-8.0,-17.3,40,25,9,30.31,30.14,10,4,33,0.00
2013-1-20,31.8,23.7,16.1,2.2,-7.2,-19.7,46,27,12,30.19,30.06,9,5,30,0.00
2013-1-21,28.8,23.4,18.8,3.9,-2.1,-16.3,45,33,15,30.16,30.04,13,6,32,0.00
2013-1-22,33.7,26.1,22.1,-12.3,-15.4,-18.3,19,15,12,30.20,30.10,10,7,28,0.00
2013-1-23,44.5,28.4,13.8,-6.9,-14.9,-22.7,31,15,9,30.25,30.16,5,2,18,0.00
2013-1-24,34.4,30.7,21.6,20.2,7.8,-14.0,74,45,12,30.09,29.83,16,10,43,0.00
2013-1-25,35.6,27.7,17.7,22.5,19.3,12.6,87,71,58,30.01,29.90,11,3,36,0.00
2013-1-26,34.6,26.7,17.8,23.8,17.2,7.7,90,68,47,29.90,29.55,9,2,28,0.00
2013-1-27,33.8,23.9,8.4,21.7,13.9,2.4,89,67,43,29.66,29.52,9,4,26,0.12
2013-1-28,25.6,18.3,7.6,18.3,9.2,-0.8,86,68,52,29.63,29.44,6,2,22,0.00
2013-1-29,8.3,1.3,-3.9,1.0,-9.6,-15.0,76,60,43,30.11,29.49,9,5,33,0.00
2013-1-30,10.7,4.2,-3.7,6.3,-2.1,-13.9,82,75,60,30.30,30.06,15,6,41,0.00
2013-1-31,17.0,13.1,10.7,11.5,7.9,6.3,83,79,72,30.35,30.21,8,5,25,0.01
2013-2-1,18.3,15.3,12.6,10.3,8.4,6.1,79,74,69,30.33,30.16,10,6,33,0.00
2013-2-2,30.0,20.5,6.7,5.8,-0.3,-9.4,70,41,24,30.42,30.26,11,6,29,0.03
2013-2-3,33.5,24.9,16.1,1.2,-8.2,-19.2,44,24,13,30.24,29.83,11,6,27,0.02
2013-2-4,30.0,21.4,14.8,6.5,-2.5,-10.7,60,36,23,29.97,29.81,11,5,27,0.00
2013-2-5,36.6,24.0,9.9,15.8,9.7,1.2,81,56,34,30.04,29.82,10,3,33,0.00
2013-2-6,31.2,24.0,14.1,15.3,11.1,6.7,83,59,37,29.82,29.69,5,2,16,0.01
2013-2-7,28.8,13.1,-3.7,7.3,-10.8,-24.5,74,41,9,30.18,29.82,6,2,21,0.03
2013-2-8,30.7,14.7,-4.6,15.3,2.4,-13.1,86,60,31,30.24,29.77,3,1,19,0.00
2013-2-9,18.6,13.0,4.1,15.2,6.9,-3.1,87,76,63,29.75,29.30,9,2,26,0.01
2013-2-10,14.0,5.8,-3.5,1.8,-3.6,-10.8,80,65,43,30.01,29.55,11,4,33,0.00
2013-2-11,11.4,3.0,-6.3,0.5,-5.0,-12.8,79,69,57,30.23,30.03,5,1,17,0.00
2013-2-12,19.7,8.1,-0.8,1.4,-7.4,-21.5,69,51,19,30.27,30.15,13,6,33,0.00
2013-2-13,20.3,14.7,7.0,7.8,2.7,-5.2,74,60,32,30.20,30.03,12,8,37,0.00
2013-2-14,18.8,13.3,8.8,5.6,2.7,-0.5,76,62,45,30.15,30.01,9,5,25,0.00
2013-2-15,13.6,9.6,6.5,2.7,0.4,-1.6,76,66,52,30.47,30.16,12,8,40,0.00
2013-2-16,28.2,19.2,11.6,9.1,2.2,-5.7,65,48,31,30.45,30.04,13,8,33,0.01
2013-2-17,33.7,23.3,14.0,10.0,-7.2,-18.2,80,29,13,30.02,29.47,11,4,35,0.04
2013-2-18,14.6,7.2,-7.7,7.6,-9.1,-24.8,77,50,15,30.28,29.47,11,5,31,0.00
2013-2-19,26.9,11.4,-9.1,-1.9,-12.3,-23.9,60,36,17,30.35,29.88,3,1,12,0.03
2013-2-20,25.6,13.3,3.0,13.2,4.1,-5.2,85,68,39,29.87,29.51,3,0,12,0.01
2013-2-21,18.8,12.5,4.5,7.7,3.7,-3.1,84,68,57,29.83,29.54,10,4,26,0.00
2013-2-22,14.4,6.6,-0.6,4.3,-2.9,-7.1,75,65,49,30.05,29.82,9,3,31,0.01
2013-2-23,24.7,14.2,1.5,13.9,2.4,-8.5,72,59,41,29.99,29.64,12,5,33,0.00
2013-2-24,11.2,4.7,-11.5,4.4,-1.6,-18.6,83,75,65,30.15,29.58,3,1,12,0.00
2013-2-25,25.7,11.7,-13.5,-1.1,-8.0,-20.2,76,44,17,30.27,29.91,9,3,26,0.02
2013-2-26,14.8,7.6,-4.1,1.4,-3.6,-10.6,77,60,46,30.14,29.75,8,4,25,0.00
2013-2-27,14.3,4.9,-1.0,-2.1,-7.5,-12.1,66,57,36,30.42,30.16,8,3,20,0.00
2013-2-28,17.2,9.7,2.0,5.9,-2.7,-13.6,80,58,39,30.49,30.40,12,8,33,0.00
2013-3-1,22.4,16.8,10.9,12.5,9.4,5.1,81,72,59,30.44,30.34,16,12,41,0.00
2013-3-2,35.5,26.4,18.3,17.6,11.9,5.8,73,55,38,30.45,30.02,11,7,32,0.02
2013-3-3,33.4,28.0,22.1,18.6,12.5,2.2,86,54,31,29.99,29.55,14,6,39,0.00
2013-3-4,26.4,16.6,2.8,18.6,9.0,-9.9,87,72,50,30.10,29.53,8,3,28,0.09
2013-3-5,34.1,19.7,5.6,-5.7,-12.6,-19.9,53,25,13,30.34,30.10,9,5,26,0.01
2013-3-6,39.6,27.7,8.3,4.8,-0.5,-9.2,55,31,19,30.16,29.78,8,2,29,0.04
2013-3-7,40.1,28.8,12.8,5.1,1.5,-4.2,58,33,15,29.80,29.69,11,4,31,0.00
2013-3-8,35.0,23.0,10.5,20.1,11.5,2.2,89,63,38,29.81,29.49,5,1,17,0.00
2013-3-9,25.0,17.4,2.6,18.9,10.9,-3.5,88,76,67,29.87,29.35,7,1,18,0.01
2013-3-10,25.8,15.5,1.7,7.0,0.4,-8.0,69,52,33,30.17,29.91,12,4,32,0.02
2013-3-11,26.7,20.7,15.4,14.5,8.6,0.5,83,60,44,30.11,29.94,13,7,34,0.01
2013-3-12,30.4,23.4,17.7,15.3,13.1,10.9,83,65,51,30.13,29.97,11,8,32,0.03
2013-3-13,37.9,27.6,18.3,16.0,12.6,8.8,71,54,34,30.25,30.08,11,6,35,0.00
2013-3-14,43.8,33.0,21.9,14.2,10.3,5.0,65,41,20,30.26,30.07,6,3,20,0.00
2013-3-15,44.8,36.4,22.9,16.2,13.7,10.9,65,40,28,30.07,29.73,13,6,40,0.00
2013-3-16,33.1,28.2,21.1,23.2,18.6,14.0,86,68,45,29.71,29.60,6,3,22,0.02
2013-3-17,27.8,19.7,12.8,17.9,11.9,4.1,87,72,56,29.72,29.51,10,4,33,0.08
2013-3-18,18.3,14.1,9.5,9.6,5.6,0.6,78,69,59,30.05,29.73,6,3,25,0.00
2013-3-19,26.7,17.2,-1.4,8.1,-5.0,-17.1,72,42,15,30.30,30.05,10,5,28,0.01
2013-3-20,35.5,24.4,-2.4,18.3,2.2,-23.5,73,43,14,30.29,29.80,11,8,29,0.01
2013-3-21,29.1,21.2,13.5,18.9,13.5,5.5,86,72,58,29.78,29.47,14,6,36,0.00
2013-3-22,26.3,17.2,11.2,10.3,-1.0,-8.5,79,48,26,29.76,29.61,14,5,29,0.02
2013-3-23,11.1,4.3,-2.8,6.9,-1.9,-8.6,83,75,64,30.20,29.61,2,0,10,0.00
2013-3-24,5.8,-1.0,-10.7,-3.0,-9.3,-17.5,76,67,57,30.39,30.20,6,2,24,0.00
2013-3-25,20.0,4.1,-4.1,-4.2,-10.0,-13.7,71,53,28,30.45,30.36,8,4,24,0.01
2013-3-26,34.7,23.2,7.6,15.2,8.3,-8.0,72,54,33,30.40,29.94,10,5,30,0.00
2013-3-27,36.2,26.4,13.8,15.1,11.8,6.0,76,56,36,29.97,29.83,8,2,22,0.01
2013-3-28,41.2,23.3,8.1,22.6,11.3,2.1,80,62,32,30.14,29.97,6,1,16,0.00
2013-3-29,37.5,26.5,12.4,25.1,16.5,7.4,85,67,45,30.13,30.02,9,3,27,0.01
2013-3-30,38.8,30.4,21.4,22.6,17.2,11.4,89,60,32,30.08,29.87,8,5,25,0.03
2013-3-31,42.3,25.6,6.7,12.6,7.8,1.3,85,52,21,30.00,29.94,10,3,23,0.06
2013-4-1,41.6,27.1,11.4,25.4,13.7,5.3,90,60,30,29.98,29.79,4,1,20,0.00
2013-4-2,32.1,24.7,21.0,23.3,19.7,17.5,91,82,67,29.88,29.68,3,0,14,0.06
2013-4-3,34.9,23.7,6.1,16.5,12.3,1.3,89,63,44,30.14,29.87,6,2,20,0.21
2013-4-4,43.5,30.8,15.2,18.9,14.4,7.8,73,53,27,30.14,29.93,7,2,17,0.00
2013-4-5,44.1,33.9,24.1,25.1,15.3,7.9,88,49,28,29.93,29.56,8,3,23,0.00
2013-4-6,38.6,30.0,23.3,20.7,15.0,7.4,77,55,30,29.73,29.61,11,6,27,0.07
2013-4-7,34.0,28.1,23.2,21.3,16.2,8.5,84,61,41,29.69,29.58,11,5,30,0.02
2013-4-8,41.3,30.3,16.1,25.8,16.4,9.4,91,60,29,29.62,29.21,6,2,23,0.01
2013-4-9,25.6,14.2,4.3,22.8,9.0,-1.0,89,79,70,29.79,29.24,2,1,9,0.13
2013-4-10,22.2,13.1,-0.2,8.5,3.5,-5.7,82,66,53,29.99,29.80,12,5,34,0.00
2013-4-11,29.0,21.5,12.8,20.1,14.7,4.6,84,75,61,29.87,29.75,13,7,34,0.01
2013-4-12,31.0,22.1,11.1,20.1,12.9,4.1,84,68,41,29.91,29.74,9,2,22,0.01
2013-4-13,39.1,27.3,8.4,24.2,10.9,1.5,86,52,32,29.90,29.29,13,5,33,0.00
2013-4-14,26.9,19.9,14.0,23.8,13.1,7.8,90,75,57,29.62,29.22,6,4,30,0.17
2013-4-15,31.0,21.2,14.6,24.3,17.1,10.6,90,84,70,29.69,29.51,5,1,23,0.04
2013-4-16,37.9,23.0,11.6,25.4,16.4,7.4,89,78,40,29.71,29.54,4,1,21,0.01
2013-4-17,21.1,16.0,2.0,17.8,12.1,-3.6,89,84,75,29.83,29.46,1,0,5,0.00
2013-4-18,10.7,5.2,0.3,-2.0,-4.3,-7.7,78,64,53,30.37,29.84,15,8,38,0.00
2013-4-19,27.3,17.8,6.9,13.9,7.0,-1.8,70,63,51,30.40,30.03,14,8,35,0.01
2013-4-20,32.7,23.6,13.5,20.7,14.4,8.5,80,68,54,30.02,29.85,6,3,19,0.11
2013-4-21,35.0,26.7,19.7,20.1,13.8,10.5,78,59,37,29.98,29.88,10,5,26,0.03
2013-4-22,34.1,26.6,14.0,23.7,17.9,10.1,86,70,50,29.86,29.67,5,2,19,0.14
2013-4-23,20.0,12.9,7.4,11.3,6.3,-0.5,83,75,58,30.17,29.74,8,2,28,0.11
2013-4-24,28.8,14.6,-3.1,11.4,1.8,-10.5,73,58,32,30.34,30.17,8,3,22,0.10
2013-4-25,42.6,26.3,2.4,14.9,6.3,-4.3,78,47,27,30.33,29.96,8,3,21,0.02
2013-4-26,42.5,28.6,13.3,15.3,7.5,2.7,70,45,21,30.18,29.94,4,1,14,0.00
2013-4-27,44.2,30.3,13.5,15.6,10.0,5.1,80,47,24,30.18,30.04,9,3,22,0.00
2013-4-28,49.4,37.0,23.0,23.9,13.9,5.0,72,41,25,30.04,29.74,10,3,27,0.00
2013-4-29,49.5,40.8,27.8,22.6,17.0,11.1,70,40,23,29.75,29.40,11,5,33,0.00
2013-4-30,50.4,43.8,33.2,27.7,17.6,13.7,80,36,26,29.39,29.29,13,4,41,0.00
2013-5-1,32.1,21.2,9.9,27.8,17.8,5.6,93,86,81,30.26,29.36,4,1,11,0.06
2013-5-2,27.0,13.6,-2.6,8.3,2.2,-8.4,82,62,39,30.68,30.28,7,2,23,0.08
2013-5-3,45.1,28.1,7.2,19.1,6.3,-4.2,75,44,21,30.55,29.97,7,2,21,0.09
2013-5-4,41.1,26.3,11.1,26.3,17.2,6.7,90,71,41,30.07,29.88,4,1,20,0.02
2013-5-5,42.5,30.0,14.8,27.2,20.8,11.4,89,71,30,30.05,29.90,2,0,17,0.14
2013-5-6,25.8,23.8,21.4,21.3,19.8,17.9,86,85,83,29.93,29.89,0,0,1,0.00
2013-6-4,58.6,47.7,32.1,33.1,24.2,13.5,85,43,22,29.66,29.54,7,3,26,0.01
2013-6-5,57.3,42.2,27.6,37.8,25.6,16.9,94,60,22,29.82,29.62,9,2,30,0.00
2013-6-6,57.5,45.6,30.1,35.6,24.5,19.0,90,47,26,29.82,29.73,4,1,16,0.04
2013-6-7,57.3,43.0,28.7,38.5,30.2,25.6,95,65,32,29.81,29.67,6,2,20,0.04
2013-6-8,57.8,49.1,33.1,31.0,28.3,22.9,83,47,27,29.66,29.52,9,5,26,0.00
2013-6-9,67.8,52.1,33.1,31.7,25.7,22.8,82,39,19,29.73,29.63,8,4,27,0.00
2013-6-10,71.8,55.6,32.4,31.3,25.6,19.6,75,38,15,29.71,29.58,3,1,18,0.00
2013-6-11,66.9,55.6,38.5,28.4,19.1,12.9,59,27,13,29.64,29.49,7,2,28,0.00
2013-6-12,69.9,54.7,32.8,29.1,22.4,17.1,66,32,15,29.71,29.60,5,2,22,0.00
2013-6-13,68.1,51.8,33.5,36.4,27.0,22.8,74,43,19,29.74,29.62,5,1,25,0.02
2013-6-14,67.4,52.1,34.3,35.6,25.0,14.6,78,41,15,29.66,29.54,5,2,20,0.00
2013-6-15,64.0,47.6,26.4,29.4,21.2,10.4,84,42,14,29.82,29.62,4,1,22,0.00
2013-6-16,56.3,43.7,32.1,38.7,30.4,24.6,93,63,34,29.90,29.72,9,2,23,0.12
2013-6-17,62.4,44.0,29.5,37.3,30.0,22.0,92,64,23,29.97,29.85,5,1,22,0.04
2013-6-18,65.0,46.0,30.6,38.7,30.1,20.3,92,61,20,29.91,29.68,4,1,21,0.01
2013-6-19,67.8,48.3,25.8,33.5,18.9,7.5,84,41,10,29.71,29.57,4,1,21,0.01
2013-6-20,66.1,50.2,31.2,24.8,16.8,9.4,59,30,13,29.65,29.55,3,1,20,0.00
2013-6-21,67.8,50.8,29.4,22.9,18.4,12.7,68,34,13,29.67,29.59,3,1,20,0.00
2013-6-22,65.0,49.3,30.6,25.3,19.0,14.0,62,34,15,29.62,29.50,4,1,21,0.00
2013-6-23,66.1,45.8,25.4,31.5,22.2,17.0,74,45,15,29.68,29.60,3,1,17,0.00
2013-6-24,64.2,47.6,27.9,36.7,21.3,14.3,87,44,15,29.66,29.60,5,1,21,0.00
2013-6-25,64.5,51.4,34.7,30.7,24.6,16.4,77,37,26,29.77,29.52,9,3,33,0.00
2013-6-26,72.8,53.8,31.2,34.3,29.5,25.7,83,45,19,29.89,29.76,4,1,15,0.00
2013-6-27,75.1,57.4,37.2,35.5,30.5,25.7,70,41,17,29.89,29.80,3,1,14,0.00
2013-6-28,73.2,55.6,35.9,39.9,32.9,27.1,87,50,19,29.90,29.78,4,1,18,0.00
2013-6-29,69.8,49.6,35.6,45.2,37.1,32.4,90,67,29,29.89,29.76,4,1,19,0.03
2013-6-30,66.3,49.0,33.7,44.7,36.9,30.8,93,68,28,29.92,29.80,7,2,21,0.15
2013-7-1,64.2,47.3,31.5,46.2,36.6,27.9,94,72,26,29.95,29.88,3,1,16,0.10
2013-7-2,64.5,47.4,31.9,43.1,33.7,26.4,94,67,25,29.94,29.83,4,1,19,0.09
2013-7-3,65.6,48.9,31.6,39.6,33.0,26.2,94,60,25,29.86,29.69,6,2,24,0.01
2013-7-4,67.8,53.8,39.9,43.7,36.0,30.8,93,55,26,29.73,29.56,3,1,17,0.14
2013-7-5,63.1,51.4,38.2,51.5,42.5,36.6,95,74,45,29.65,29.52,5,2,20,0.10
2013-7-6,66.4,51.9,40.2,46.2,41.2,36.2,95,71,34,29.70,29.59,7,2,25,0.10
2013-7-7,67.1,51.6,38.3,47.6,41.0,36.2,94,70,40,29.78,29.67,5,1,20,0.04
2013-7-8,66.4,51.6,35.3,48.8,37.2,31.9,96,64,29,29.87,29.76,6,2,20,0.09
2013-7-9,69.1,53.1,36.2,41.6,36.3,32.3,87,58,27,29.93,29.87,4,1,19,0.00
2013-7-10,66.6,52.7,37.3,46.3,40.6,34.6,90,67,34,29.90,29.74,2,0,12,0.00
2013-7-11,70.4,54.7,35.3,48.4,38.9,31.9,94,61,27,29.82,29.60,3,1,14,0.01
2013-7-12,67.1,53.9,45.1,51.3,42.6,37.6,90,67,40,29.67,29.52,7,1,21,0.06
2013-7-13,68.1,53.8,42.1,50.8,43.6,39.3,92,71,38,29.77,29.66,6,1,24,0.06
2013-7-14,63.5,49.2,36.8,50.6,43.3,35.2,96,82,49,29.86,29.75,5,1,16,0.16
2013-7-15,58.4,47.8,39.3,48.4,44.8,38.0,96,90,67,29.85,29.73,3,0,15,0.13
2013-7-16,62.1,49.0,31.5,46.9,40.3,29.7,96,75,42,29.91,29.79,3,1,14,0.00
2013-7-17,65.6,49.3,32.8,52.2,42.1,31.1,96,79,50,29.92,29.82,2,0,12,0.04
2013-7-18,66.4,51.3,38.8,49.8,42.2,37.2,95,73,44,29.91,29.76,5,1,21,0.04
2013-7-19,62.3,50.5,41.9,49.1,43.3,39.2,94,78,51,29.86,29.74,2,0,12,0.04
2013-7-20,68.6,53.5,36.0,42.9,34.7,22.8,95,57,18,29.80,29.62,5,2,19,0.01
2013-7-21,69.8,52.1,32.1,39.2,31.0,24.4,93,53,19,29.72,29.63,6,2,21,0.01
2013-7-22,70.3,53.2,34.9,35.2,28.9,18.4,83,46,17,29.79,29.70,5,2,20,0.00
2013-7-23,71.5,54.7,32.7,39.5,26.4,17.8,74,40,16,29.82,29.74,4,1,18,0.00
2013-7-24,65.8,49.6,36.5,45.1,38.8,32.7,92,69,31,29.81,29.68,7,1,18,0.00
2013-7-25,62.0,47.5,36.8,46.7,40.4,34.7,96,79,44,29.98,29.77,7,2,23,0.31
2013-7-26,65.0,48.3,33.4,44.6,37.7,30.2,96,72,27,30.00,29.93,4,0,15,0.01
2013-7-27,62.7,48.1,34.0,49.3,39.4,32.2,95,76,41,29.97,29.68,4,1,17,0.09
2013-7-28,57.3,47.1,40.9,46.2,42.3,38.8,95,84,56,29.93,29.57,6,1,20,0.18
2013-7-29,59.0,49.1,38.8,45.1,39.1,35.6,92,70,47,30.61,29.70,7,2,25,0.01
2013-7-30,62.4,47.8,31.6,40.3,35.3,29.3,93,65,37,29.96,29.80,7,2,22,0.01
2013-7-31,66.3,49.9,32.1,41.8,36.0,29.2,90,62,29,30.00,29.83,2,0,13,0.00
2013-8-1,62.7,48.0,33.4,45.8,38.1,30.5,94,71,41,29.85,29.71,7,2,24,0.03
2013-8-2,64.7,54.2,44.5,44.5,38.8,32.3,82,58,31,29.70,29.62,8,3,23,0.00
2013-8-3,65.5,50.0,37.6,43.3,38.3,33.8,93,68,34,29.85,29.66,5,1,20,0.00
2013-8-4,65.6,49.3,34.1,48.2,39.6,32.3,95,73,37,29.83,29.75,5,1,16,0.05
2013-8-5,62.4,47.9,34.6,49.1,40.2,32.8,95,77,42,29.81,29.71,6,1,18,0.40
2013-8-6,64.5,48.2,36.3,42.8,37.4,31.2,96,70,32,29.78,29.68,5,2,20,0.02
2013-8-7,51.1,42.1,36.3,43.0,38.1,33.4,94,86,66,29.83,29.69,1,0,14,0.54
2013-8-8,57.5,43.0,32.2,41.1,35.3,29.9,94,77,38,29.90,29.77,3,1,15,0.04
2013-8-9,54.7,42.3,32.2,40.4,35.7,30.7,95,79,47,30.00,29.83,3,0,13,0.04
2013-8-10,62.4,45.6,29.1,38.4,30.1,24.8,94,62,24,30.03,29.89,6,2,19,0.01
2013-8-11,62.1,46.0,34.1,45.1,36.3,31.2,94,72,33,29.90,29.79,2,0,12,0.05
2013-8-12,58.7,45.4,31.9,41.8,35.5,30.1,94,72,39,29.91,29.85,5,1,17,0.00
2013-8-13,59.6,44.3,29.5,37.6,33.6,27.5,94,70,37,29.95,29.86,10,2,22,0.01
2013-8-14,59.6,44.7,29.5,34.7,29.6,25.1,93,61,28,29.98,29.92,7,2,22,0.01
2013-8-15,62.9,45.9,28.5,32.7,27.8,24.4,89,56,26,29.96,29.89,7,2,20,0.00
2013-8-16,66.8,49.1,28.7,36.6,28.2,23.2,84,51,22,29.96,29.89,4,1,14,0.00
2013-8-17,38.0,35.8,33.1,30.4,28.9,28.1,83,76,73,29.92,29.86,0,0,5,0.00
2013-8-18,65.2,47.2,33.4,46.2,37.0,28.8,92,71,32,29.89,29.75,3,1,15,0.11
2013-8-19,68.4,50.5,34.0,50.3,38.3,32.2,94,68,28,29.90,29.75,2,0,13,0.13
2013-8-20,68.4,51.7,34.4,46.3,36.2,27.9,90,60,25,29.80,29.69,3,1,13,0.00
2013-8-21,67.1,50.2,35.5,49.9,40.5,32.6,92,73,35,29.80,29.69,3,1,15,0.06
2013-8-22,62.1,49.7,39.3,49.9,43.2,36.9,93,80,51,29.82,29.74,1,0,9,0.07
2013-8-23,64.0,50.3,35.6,48.9,40.7,34.3,96,73,38,29.79,29.60,3,0,15,0.06
2013-8-24,62.1,48.0,35.3,47.9,39.6,32.7,94,75,45,29.80,29.65,5,1,19,0.12
2013-8-25,59.2,48.3,36.6,47.9,43.0,35.3,96,83,56,29.85,29.78,1,0,10,0.13
2013-8-26,67.3,51.9,41.5,48.4,44.3,40.4,96,78,48,29.85,29.72,4,1,14,0.08
2013-8-27,66.3,51.3,37.8,48.8,41.7,36.1,96,73,34,29.80,29.71,2,0,11,0.01
2013-8-28,69.3,52.0,36.5,47.2,39.6,29.1,94,69,23,29.82,29.70,2,0,11,0.35
2013-8-29,65.5,50.0,37.3,50.9,43.3,36.0,96,80,41,29.90,29.78,2,0,11,0.10
2013-8-30,65.0,51.7,43.2,49.7,44.3,40.6,92,78,47,29.89,29.74,5,1,17,0.19
2013-8-31,63.1,50.1,41.3,49.6,44.4,39.2,94,82,47,29.78,29.71,3,0,18,0.24
2013-9-1,60.9,49.3,40.5,48.9,44.0,39.2,96,84,50,29.81,29.72,2,0,13,0.16
2013-9-2,65.5,51.3,41.3,50.9,43.9,38.8,96,79,43,29.82,29.72,3,0,15,0.24
2013-9-3,66.6,51.2,37.8,51.1,43.4,36.5,96,78,39,29.83,29.73,6,1,18,0.37
2013-9-4,66.1,50.1,41.2,51.3,45.1,39.4,97,85,49,29.92,29.80,1,0,11,0.07
2013-9-5,68.4,51.7,39.1,49.2,42.1,33.0,95,74,31,29.91,29.79,3,0,11,0.00
2013-9-6,68.8,52.1,36.5,44.9,39.1,31.5,93,67,25,29.86,29.75,2,1,13,0.02
2013-9-7,67.9,52.2,35.9,45.2,39.1,33.8,93,66,30,29.76,29.67,2,0,13,0.00
2013-9-8,65.6,50.0,36.2,49.2,39.4,30.3,92,70,29,29.70,29.52,2,0,10,0.05
2013-9-9,62.7,49.7,35.8,43.6,39.6,33.7,93,71,44,29.58,29.48,2,0,20,0.09
2013-9-10,50.2,45.1,42.5,45.6,43.1,40.7,96,93,83,29.78,29.56,1,0,11,0.76
2013-9-11,51.0,45.3,42.9,47.1,43.7,41.8,97,94,84,29.82,29.74,1,0,7,0.80
2013-9-12,53.1,45.4,40.5,47.9,43.3,39.4,97,92,74,29.86,29.74,1,0,6,1.14
2013-9-13,53.5,45.1,37.8,46.7,41.3,35.9,97,87,61,29.74,29.55,2,0,11,0.60
2013-9-14,57.0,43.6,33.8,43.9,38.4,32.3,96,83,51,29.66,29.56,3,0,14,0.24
2013-9-15,46.1,39.1,32.8,43.0,37.4,31.3,97,94,83,29.95,29.65,1,0,10,1.10
2013-9-16,56.3,41.9,30.4,42.9,35.8,29.1,96,81,53,29.94,29.80,4,1,15,0.01
2013-9-17,60.5,43.7,29.8,40.8,33.1,28.3,95,71,36,29.87,29.63,6,1,17,0.01
2013-9-18,58.3,42.8,32.4,39.2,34.5,30.7,95,75,38,29.63,29.52,5,2,24,0.57
2013-9-19,53.8,39.6,27.6,40.2,31.1,24.8,96,75,42,29.86,29.62,6,1,20,0.01
2013-9-20,59.6,39.2,23.2,30.5,20.7,2.8,92,59,13,29.91,29.81,4,1,16,0.01
2013-9-21,59.3,42.9,27.3,35.9,29.0,23.1,88,62,31,29.86,29.61,7,1,23,0.00
2013-9-22,49.2,37.9,30.6,41.5,34.1,28.6,94,87,68,29.61,29.29,5,0,16,0.29
2013-9-23,37.8,31.8,28.4,29.3,24.9,20.7,92,76,58,29.97,29.23,17,9,42,0.07
2013-9-24,57.0,38.1,21.8,24.2,15.5,6.8,76,47,15,30.05,29.73,3,1,14,0.00
2013-9-25,58.7,46.7,28.8,25.3,17.8,10.5,72,33,19,29.72,29.25,8,2,35,0.00
2013-9-26,59.2,47.3,36.5,24.3,17.7,11.5,50,32,20,29.31,29.21,7,2,33,0.00
2013-9-27,40.3,31.8,21.1,33.6,24.2,13.8,90,74,48,29.70,29.25,8,2,31,0.08
2013-9-28,47.6,33.0,19.5,21.2,11.8,-4.2,77,44,21,30.03,29.69,9,4,32,0.00
2013-9-29,53.2,39.5,23.9,15.9,13.2,10.1,67,36,22,29.99,29.71,7,2,22,0.00
2013-9-30,59.6,47.5,35.9,31.0,23.1,14.8,55,39,28,29.76,29.49,9,4,29,0.00
2013-10-1,61.5,41.5,26.1,25.6,20.8,12.2,80,51,15,29.70,29.56,3,1,15,0.00
2013-10-2,57.2,39.7,23.3,23.6,18.9,11.3,81,50,17,29.78,29.64,2,1,12,0.00
2013-10-3,53.9,43.1,32.9,21.5,18.0,12.8,62,38,20,29.65,29.27,5,2,34,0.00
2013-10-4,38.6,23.2,14.0,26.0,12.3,5.7,86,63,45,30.00,29.21,8,4,28,0.01
2013-10-5,33.8,23.2,14.0,7.7,-0.0,-19.3,71,42,9,30.36,30.01,11,7,32,0.00
2013-10-6,49.5,35.5,27.8,19.6,5.8,-13.2,50,30,15,30.32,30.15,9,3,26,0.00
2013-10-7,60.7,40.9,20.6,20.2,10.4,3.0,66,35,11,30.02,29.76,4,1,17,0.00
2013-10-8,56.5,40.8,26.9,22.3,15.8,6.9,76,42,15,29.74,29.48,4,1,20,0.00
2013-10-9,50.8,34.8,23.8,27.2,19.3,13.8,84,58,27,29.70,29.55,4,1,19,0.00
2013-10-10,37.2,29.4,24.2,29.6,22.8,14.2,88,76,59,29.69,29.31,12,2,33,0.02
2013-10-11,24.7,24.6,24.4,18.8,18.5,18.0,79,77,76,29.41,29.40,11,10,33,0.00
2013-10-12,43.3,27.9,12.3,17.4,12.7,4.8,85,58,22,29.99,29.87,3,1,15,0.00
2013-10-13,49.6,33.0,16.5,29.2,21.2,13.0,89,66,29,30.00,29.68,3,1,18,0.01
2013-10-14,33.8,27.9,22.1,23.6,18.5,13.1,83,68,43,29.88,29.49,12,4,31,0.07
2013-10-15,28.2,22.6,18.8,21.7,17.3,13.2,90,80,61,29.97,29.87,2,0,13,0.02
2013-10-16,29.3,21.3,9.5,16.8,13.3,5.4,89,73,52,30.00,29.91,8,3,24,0.00
2013-10-17,35.9,26.6,19.9,16.1,6.6,-2.7,73,44,25,30.01,29.78,7,4,29,0.00
2013-10-18,24.1,20.1,15.9,16.5,8.7,2.4,83,62,47,30.08,29.74,9,4,29,0.00
2013-10-19,38.3,27.1,16.9,16.2,11.1,4.2,69,51,38,30.14,29.86,8,4,26,0.01
2013-10-20,38.0,29.0,21.3,20.9,14.8,10.6,87,56,39,29.86,29.66,9,5,35,0.01
2013-10-21,36.0,26.0,13.3,16.3,12.4,6.1,85,58,38,30.10,29.80,8,3,25,0.04
2013-10-22,46.2,33.4,21.0,19.0,16.1,13.4,72,51,28,30.11,29.95,5,2,20,0.00
2013-10-23,49.4,32.9,20.2,18.3,14.2,10.5,77,50,21,30.02,29.92,5,1,17,0.00
2013-10-24,50.1,31.8,17.0,20.5,14.2,9.2,81,54,22,30.11,29.99,2,1,13,0.00
2013-10-25,46.0,34.1,21.3,25.1,18.1,14.5,76,55,28,30.10,29.94,4,1,14,0.00
2013-10-26,47.1,32.4,16.9,22.9,16.7,11.5,88,57,27,30.13,30.02,3,0,16,0.00
2013-10-27,43.9,32.9,22.5,18.6,15.1,10.0,76,50,27,30.03,29.70,7,2,24,0.00
2013-10-28,40.8,29.0,16.7,25.1,15.3,9.6,86,60,28,29.75,29.66,3,0,15,0.00
2013-10-29,37.8,30.4,25.8,23.7,14.1,7.6,91,53,28,29.72,29.50,4,1,21,0.00
2013-10-30,30.4,21.1,15.9,21.3,11.0,6.9,89,65,44,29.74,29.50,7,3,28,0.14
2013-10-31,24.4,19.0,15.1,14.1,10.8,7.8,78,70,55,29.94,29.73,12,7,33,0.00
2013-11-1,27.8,22.2,18.9,17.3,12.1,-5.8,85,68,23,30.18,29.91,9,5,29,0.01
2013-11-2,46.5,35.0,20.6,5.0,-4.0,-12.3,48,19,11,30.17,29.64,6,3,22,0.02
2013-11-3,39.5,32.0,18.4,19.2,8.8,-2.7,87,41,19,29.64,29.23,7,3,28,0.00
2013-11-4,33.5,22.7,10.9,14.3,7.5,0.8,86,54,30,29.75,29.43,5,1,19,0.05
2013-11-5,22.4,13.8,5.6,15.0,2.3,-16.6,86,61,30,30.23,29.64,6,2,21,0.01
2013-11-6,23.9,17.6,8.6,10.3,4.6,-16.8,70,57,27,30.46,30.22,10,5,29,0.00
2013-11-7,39.3,31.1,19.4,15.3,11.5,4.0,63,45,28,30.44,29.93,8,5,25,0.00
2013-11-8,39.1,32.7,26.1,14.2,10.5,4.5,53,39,28,29.92,29.64,10,4,39,0.00
2013-11-9,42.9,32.0,23.5,14.3,9.7,2.6,60,41,25,30.07,29.87,4,1,20,0.00
2013-11-10,43.8,30.2,19.9,14.9,11.3,7.3,70,48,27,30.13,30.06,5,1,18,0.00
2013-11-11,41.2,29.2,15.6,13.4,10.7,7.4,77,48,25,30.29,30.07,6,2,25,0.00
2013-11-12,45.8,26.7,11.6,12.5,7.7,-1.1,83,51,18,30.47,30.30,3,0,20,0.00
2013-11-13,42.5,33.0,27.2,13.2,5.8,-2.1,51,32,23,30.34,29.78,6,2,19,0.00
2013-11-14,36.5,27.8,21.1,17.9,6.5,-6.3,78,44,21,29.79,29.61,6,2,19,0.00
2013-11-15,35.2,26.1,18.0,20.7,10.3,-6.2,89,54,25,29.61,29.27,4,1,26,0.00
2013-11-16,27.5,20.9,16.5,17.6,13.4,9.6,88,73,50,29.37,29.21,11,6,34,0.02
2013-11-17,23.9,19.7,15.2,15.5,11.2,3.0,89,71,41,30.06,29.37,12,8,34,0.00
2013-11-18,42.9,25.2,11.6,11.0,3.9,-3.1,73,44,17,30.17,29.95,8,2,25,0.03
2013-11-19,34.7,24.5,8.1,19.0,11.2,0.3,75,59,32,29.97,29.67,13,5,33,0.00
2013-11-20,35.3,26.9,22.9,19.9,16.0,12.7,88,64,40,29.68,29.58,8,3,26,0.01
2013-11-21,29.8,22.7,14.3,23.2,19.8,11.1,91,88,76,30.05,29.61,1,0,7,0.01
2013-11-22,23.9,16.0,10.0,19.9,12.3,6.1,88,85,83,30.42,30.06,0,0,4,0.00
2013-11-23,20.2,15.7,11.4,15.6,11.7,7.2,88,84,79,30.45,30.24,0,0,6,0.00
2013-11-24,30.3,20.7,7.4,22.5,15.6,3.3,90,81,69,30.22,29.80,2,0,12,0.00
2013-11-25,27.0,19.2,7.4,16.7,11.6,2.5,83,72,58,30.17,29.79,4,1,28,0.00
2013-11-26,27.6,20.8,13.5,11.6,8.7,4.1,74,60,43,30.27,30.18,6,3,27,0.00
2013-11-27,36.2,23.4,10.7,13.0,6.9,2.7,73,51,33,30.18,30.00,5,2,20,0.02
2013-11-28,37.8,18.0,6.7,13.0,6.1,-0.7,77,62,33,30.20,30.05,1,0,10,0.08
2013-11-29,31.0,19.6,5.6,9.7,4.7,-1.9,77,54,36,30.23,30.15,9,3,24,0.00
2013-11-30,32.5,22.4,10.5,4.3,-0.2,-5.8,69,38,26,30.20,30.08,7,2,24,0.00
2013-12-1,28.1,22.0,8.3,17.2,7.3,-1.8,77,54,36,30.12,29.90,12,8,37,0.00
2013-12-2,30.3,24.5,21.6,17.5,15.7,12.8,81,70,52,29.91,29.51,9,5,28,0.00
2013-12-3,24.8,22.9,20.0,20.5,16.6,11.3,87,77,57,29.50,29.17,2,0,18,0.00
2013-12-4,22.2,10.9,-4.6,18.4,5.1,-14.0,88,77,63,29.70,29.04,8,2,29,0.00
2013-12-5,10.4,-4.0,-21.7,-5.7,-15.8,-29.8,70,57,32,30.09,29.69,7,1,20,0.02
2013-12-6,2.0,-5.6,-19.0,-8.3,-15.5,-26.3,71,61,54,30.43,30.09,4,1,17,0.00
2013-12-7,10.9,4.7,-2.0,1.7,-3.9,-11.0,79,67,55,30.34,29.71,3,0,16,0.00
2013-12-8,5.0,-2.2,-16.4,-1.5,-10.2,-24.2,79,68,59,30.09,29.62,9,2,26,0.00
2013-12-9,3.9,-4.0,-9.1,-9.1,-16.2,-18.9,65,55,43,30.64,30.10,13,8,34,0.00
2013-12-10,19.2,11.9,3.9,5.0,0.5,-8.0,71,60,52,30.56,30.18,13,8,33,0.00
2013-12-11,24.1,17.7,9.7,1.7,-6.8,-13.8,68,36,21,30.36,30.20,8,5,24,0.00
2013-12-12,37.6,26.8,14.9,2.0,-6.4,-13.2,37,23,15,30.34,29.80,8,5,26,0.02
2013-12-13,24.7,19.1,11.2,5.4,2.6,-3.5,68,50,32,29.94,29.63,10,5,27,0.00
2013-12-14,21.3,15.2,8.3,9.7,1.7,-5.3,70,56,31,30.28,29.95,13,6,37,0.00
2013-12-15,31.0,22.2,15.1,11.3,8.6,3.8,71,56,31,30.27,30.18,14,9,39,0.00
2013-12-16,33.2,27.5,23.9,13.6,7.9,-1.5,59,44,30,30.19,30.11,10,7,30,0.00
2013-12-17,37.0,28.9,20.5,8.9,4.9,1.4,52,36,28,30.20,30.00,9,3,26,0.00
2013-12-18,38.5,32.8,26.9,11.9,3.4,1.2,50,29,22,29.99,29.41,12,7,33,0.00
2013-12-19,34.1,26.0,9.3,16.4,9.1,2.7,74,50,35,29.39,29.23,8,3,34,0.00
2013-12-20,26.6,18.1,9.9,14.8,9.6,0.8,82,69,50,29.50,29.39,4,1,15,0.00
2013-12-21,17.8,11.7,4.8,4.7,-0.7,-9.3,70,58,35,29.79,29.39,7,4,26,0.00
2013-12-22,14.1,7.9,3.2,4.1,-1.2,-7.6,79,66,54,30.25,29.84,10,6,33,0.00
2013-12-23,19.2,13.7,8.6,12.9,8.5,4.0,83,80,72,30.42,30.25,15,9,38,0.00
2013-12-24,22.9,16.7,6.7,16.6,8.3,-16.1,80,70,26,30.33,30.01,9,5,29,0.00
2013-12-25,24.2,16.6,8.3,-0.5,-6.2,-14.9,61,36,26,30.45,30.22,10,5,31,0.00
2013-12-26,28.7,22.0,13.1,11.2,3.8,-13.5,67,47,20,30.40,30.23,9,4,29,0.00
2013-12-27,41.2,24.9,8.8,15.8,10.7,2.7,78,57,32,30.28,30.06,6,1,22,0.00
2013-12-28,32.5,24.3,15.1,17.3,12.7,8.4,87,62,44,30.05,29.81,5,2,19,0.00
2013-12-29,20.0,13.0,7.2,10.4,0.2,-10.6,84,59,27,30.13,29.82,8,3,32,0.10
2013-12-30,20.8,17.0,13.5,7.8,3.6,-2.9,75,56,40,30.26,30.10,11,8,32,0.00
2013-12-31,25.3,22.1,20.3,15.3,11.2,3.6,80,63,44,30.20,29.89,14,9,38,0.00
2014-1-1,20.3,14.3,9.2,15.1,8.9,0.7,86,79,61,30.23,29.83,11,6,30,0.00
2014-1-2,30.7,22.2,13.3,12.6,4.0,-9.6,63,46,29,30.33,29.96,13,8,34,0.02